Location: Arboyeti
(42.1122°N, 44.6017°E)
Time: 17:15:00
(UTC+00:00)

Cosmos 1634 Rocket - Pass Details

Date: 19 April 2021
Orbit: 958 x 993 km, 82.9° (Epoch: 06 May)

Event Time Altitude Azimuth Distance (km) Brightness Sun altitude
Rises 16:52:04 0° 179° (S) 3,683 6.7 -11.9°
Reaches altitude 10° 16:54:35 10° 177° (S) 2,734 6.1 -12.4°
Maximum altitude 17:00:50 73° 94° (E) 1,025 4.0 -13.4°
Drops below altitude 10° 17:07:03 10° 11° (NNE) 2,729 6.6 -14.4°
Sets 17:09:34 0° 10° (N) 3,675 7.3 -14.8°
